Location: Lombard
(41.8800°N, 88.0080°W)
Time: 04:50:34
(UTC-05:00)

CAS-4A - Pass Details

Date: 26 May 2022
Orbit: 523 x 537 km, 43.0° (Epoch: 27 June)

Event Time Altitude Azimuth Distance (km) Brightness Sun altitude
Rises 20:44:16 0° 275° (W) 2,659 ? -5.3°
Reaches altitude 10° 20:46:31 10° 277° (W) 1,767 ? -5.6°
Maximum altitude 20:50:33 75° 4° (N) 547 ? -6.2°
Drops below altitude 10° 20:54:35 10° 90° (E) 1,758 ? -6.8°
Enters shadow 20:55:51 - 91° (E) 2,265 ? -7.0°
